Brownsville, TX

6:16 PM CDT on July 20, 2017 (GMT -0500)
Brownsville-South Padre I International

Weather History for KBRO - March, 2012

Change the Weather History Date:

Monday, March 26, 2012

  Actual Average Record
Temperature  
Mean Temperature 76 °F 71 °F  
Max Temperature 84 °F 81 °F 102 °F (1928)
Min Temperature 68 °F 62 °F 39 °F (1955)
Degree Days  
Heating Degree Days 0 1  
Month to date heating degree days 22 39  
Since 1 July heating degree days 352 542  
Cooling Degree Days 11 7  
Month to date cooling degree days 203 138  
Year to date cooling degree days 443 279  
Growing Degree Days 25 (Base 50)    
Moisture  
Dew Point 69 °F    
Average Humidity 82    
Maximum Humidity 100    
Minimum Humidity 63    
Precipitation  
Precipitation 0.00 in 0.05 in 0.50 in (1960)
Month to date precipitation 0.21 1.02  
Year to date precipitation 4.79 3.37  
Sea Level Pressure  
Sea Level Pressure 29.99 in    
Wind  
Wind Speed 10 mph (ESE)    
Max Wind Speed 20 mph    
Max Gust Speed 25 mph    
Visibility 9 miles    
Events      
T = Trace of Precipitation, MM = Missing Value Source: NWS Daily Summary

Daily Weather History Graph

Daily Weather History Graph

Search for Another Location

Airport or City:

Trip Planner

Search our weather history database for the weather conditions in past years. The results will help you decide how hot, cold, wet, or windy it might be!

Date:

Astronomy

Mar. 26, 2012 Rise Set
Actual Time 7:26 AM CDT 7:44 PM CDT
Civil Twilight 7:03 AM CDT 8:07 PM CDT
Nautical Twilight 6:36 AM CDT 8:33 PM CDT
Astronomical Twilight 6:09 AM CDT 9:01 PM CDT
Moon 9:42 AM CDT (3/26) 11:28 PM CDT (3/26)
Length of Visible Light 13h 03m
Length of Day
12h 17m
Waxing Crescent, 15% of the Moon is Illuminated
Mar 26
Waxing Crescent
Mar 30
First Quarter
Apr 6
Full
Apr 13
Last Quarter
Apr 21
New

Hourly Weather History & Observations

Time (CDT) Temp. Heat Index Dew Point Humidity Pressure Visibility Wind Dir Wind Speed Gust Speed Precip Events Conditions
12:38 AM 71.6 °F - 69.8 °F 94% 30.02 in 9.0 mi ESE 5.8 mph - N/A   Mostly Cloudy
12:53 AM 71.1 °F - 69.1 °F 93% 30.02 in 9.0 mi ESE 5.8 mph - N/A   Mostly Cloudy
1:53 AM 71.1 °F - 69.1 °F 93% 30.01 in 9.0 mi ESE 5.8 mph - N/A   Overcast
2:28 AM 71.6 °F - 69.8 °F 94% 30.01 in 9.0 mi ESE 5.8 mph - N/A   Overcast
2:53 AM 70.0 °F - 68.0 °F 93% 30.00 in 8.0 mi East 4.6 mph - N/A   Mostly Cloudy
3:00 AM 69.8 °F - 68.0 °F 94% 30.00 in 8.0 mi East 4.6 mph - N/A   Scattered Clouds
3:53 AM 68.0 °F - 66.9 °F 96% 29.99 in 6.0 mi East 4.6 mph - N/A   Clear
4:00 AM 68.0 °F - 66.2 °F 94% 29.99 in 5.0 mi East 4.6 mph - N/A   Scattered Clouds
4:10 AM 69.8 °F - 68.0 °F 94% 29.99 in 6.0 mi ESE 5.8 mph - N/A   Mostly Cloudy
4:38 AM 69.8 °F - 68.0 °F 94% 29.99 in 6.0 mi ESE 4.6 mph - N/A   Overcast
4:53 AM 69.1 °F - 68.0 °F 96% 29.99 in 6.0 mi ESE 4.6 mph - N/A   Overcast
5:53 AM 70.0 °F - 69.1 °F 97% 29.98 in 8.0 mi East 6.9 mph - N/A   Overcast
6:53 AM 71.1 °F - 69.1 °F 93% 29.99 in 9.0 mi ESE 8.1 mph - N/A   Overcast
7:53 AM 71.1 °F - 69.1 °F 93% 30.01 in 7.0 mi East 8.1 mph - N/A   Overcast
8:53 AM 73.0 °F - 70.0 °F 90% 30.04 in 9.0 mi ESE 6.9 mph - N/A   Overcast
9:40 AM 73.4 °F - 69.8 °F 88% 30.05 in 10.0 mi ESE 11.5 mph - N/A   Mostly Cloudy
9:53 AM 75.0 °F - 70.0 °F 84% 30.05 in 10.0 mi ESE 10.4 mph - N/A   Overcast
10:31 AM 77.0 °F - 69.8 °F 78% 30.05 in 10.0 mi ESE 11.5 mph - N/A   Mostly Cloudy
10:53 AM 77.0 °F - 69.1 °F 76% 30.05 in 10.0 mi ESE 11.5 mph - N/A   Overcast
11:31 AM 80.6 °F 83.9 °F 69.8 °F 70% 30.05 in 10.0 mi ESE 13.8 mph - N/A   Mostly Cloudy
11:53 AM 81.0 °F 84.4 °F 70.0 °F 69% 30.04 in 10.0 mi ESE 12.7 mph - N/A   Scattered Clouds
12:03 PM 82.4 °F 86.3 °F 69.8 °F 66% 30.04 in 10.0 mi ESE 12.7 mph 19.6 mph N/A   Mostly Cloudy
12:32 PM 82.4 °F 86.3 °F 69.8 °F 66% 30.03 in 10.0 mi SE 13.8 mph - N/A   Scattered Clouds
12:53 PM 82.9 °F 86.5 °F 69.1 °F 63% 30.02 in 10.0 mi SE 17.3 mph 21.9 mph N/A   Partly Cloudy
1:53 PM 82.9 °F 86.5 °F 69.1 °F 63% 29.99 in 10.0 mi ESE 15.0 mph - N/A   Scattered Clouds
2:53 PM 82.0 °F 84.9 °F 68.0 °F 62% 29.97 in 10.0 mi ESE 13.8 mph 21.9 mph N/A   Overcast
3:53 PM 81.0 °F 83.8 °F 68.0 °F 65% 29.94 in 10.0 mi ESE 17.3 mph 23.0 mph N/A   Mostly Cloudy
4:53 PM 81.0 °F 83.8 °F 68.0 °F 65% 29.92 in 10.0 mi ESE 13.8 mph 24.2 mph N/A   Scattered Clouds
5:12 PM 80.6 °F 83.2 °F 68.0 °F 65% 29.93 in 10.0 mi ESE 16.1 mph - N/A   Mostly Cloudy
5:53 PM 78.1 °F - 68.0 °F 71% 29.93 in 10.0 mi ESE 12.7 mph 20.7 mph N/A   Mostly Cloudy
6:43 PM 77.0 °F - 69.8 °F 78% 29.94 in 10.0 mi ESE 13.8 mph - N/A   Scattered Clouds
6:53 PM 75.9 °F - 69.1 °F 79% 29.94 in 10.0 mi ESE 16.1 mph 21.9 mph N/A   Scattered Clouds
7:47 PM 73.4 °F - 69.8 °F 88% 29.95 in 10.0 mi ESE 12.7 mph - N/A   Mostly Cloudy
7:53 PM 73.9 °F - 69.1 °F 85% 29.96 in 10.0 mi ESE 12.7 mph - N/A   Mostly Cloudy
8:03 PM 73.4 °F - 69.8 °F 88% 29.96 in 10.0 mi ESE 11.5 mph - N/A   Scattered Clouds
8:53 PM 73.0 °F - 69.1 °F 87% 29.96 in 10.0 mi ESE 11.5 mph - N/A   Clear
9:53 PM 72.0 °F - 69.1 °F 91% 29.98 in 10.0 mi ESE 10.4 mph - N/A   Clear
10:53 PM 72.0 °F - 69.1 °F 91% 29.99 in 10.0 mi ESE 6.9 mph - N/A   Clear
11:53 PM 72.0 °F - 69.1 °F 91% 30.00 in 10.0 mi ESE 8.1 mph - N/A   Clear